Terminal Aerodrome Forecast
Issued by NWS

Home | Current Version | Previous Version | Text Only | Print | Product List | Glossary On
Versions: 1 2 3 4 5 6 7 8 9 10 11 12 13 14 15 16 17 18 19 20 21 22 23 24
000
FTUS45 KLKN 032320
TAFTPH
TAF
KTPH 032320Z 0400/0424 20015G25KT P6SM SCT200
     FM040300 19012KT P6SM SCT200
     FM040600 VRB05KT P6SM SCT200
     FM041800 19020G30KT P6SM SCT200=

USA.gov is the U.S. government's official web portal to all federal, state and local government web resources and services.